Location: Allentsteig
(48.6833°N, 15.3167°E)
Time: 01:14:36
(UTC+00:00)

Cosmos 2298 Rocket - Pass Details

Date: 16 January 2021
Orbit: 775 x 784 km, 74.0° (Epoch: 03 March)

Event Time Altitude Azimuth Distance (km) Brightness Sun altitude
Rises 05:57:56 0° 337° (NNW) 3,284 6.8 -7.8°
Reaches altitude 10° 06:00:20 10° 339° (NNW) 2,352 6.1 -7.4°
Maximum altitude 06:05:41 77° 66° (ENE) 810 4.3 -6.6°
Drops below altitude 10° 06:11:01 10° 153° (SSE) 2,337 7.4 -5.8°
Sets 06:13:24 0° 154° (SSE) 3,261 8.2 -5.5°
